Search for airport 
image banner adimage banner adimage banner ad
image banner ad

17PS - Mountain Crest

Located in Tidioute, United States

ICAO - 17PS, IATA -

Data provided by Airmate  

General information

Coordinates: N41°34'45" W79°26'30"
Elevation is 1641 feet MSL.
 
View others Airports in Pennsylvania

Operational data

Special qualification required
Current time UTC:
Current local time:
Weather at : KFKL - Venango Rgnl ( 41 km )
METAR: KFKL 291556Z AUTO 23007KT 5SM -RA BR FEW004 BKN008 OVC013 21/21 A2990 RMK AO2 LTG DSNT E TSE32 CIG 006V010 SLP120 P0012 T02110206
TAF: KFKL 291629Z 2916/3012 21008KT P6SM -SHRA OVC025 TEMPO 2917/2918 3SM -TSRA BKN008CB OVC025 FM292000 25008G17KT P6SM VCTS BKN035CB FM300000 29005KT P6SM BKN035 FM300600 32005KT P6SM BKN015
View NOTAMs / SUP AIP / TFR affecting this airport [VIEW]
Communications frequencies: [VIEW]

Runways:

RWY identifierQFULength (ft)Width (ft)SurfaceLDA (ft)
012170100GRASS
192170100GRASS

Airport contact information

Address: Tidioute United States

Satellite view of 17PS